SCP
0 0 0 0 0 0 0 0 0 0 0 0 0 0 0 0 0 0 0 0 0 0 0 0 0 0 0 0 0 0 0 0 0 0 0 0 0 0 0 0 0 0 0 0
0 0 0 0 0 0 0 0 0 0 0 0 0 0 0 0 0 0 0 0 0 0 0 0 0 0 0 0 0 0 0 0 0 0 0 0 0 0 0 0 0 0 0 0
0 0 0 0 0 0 0 0 0 0 0 0 0 0 0 0 0 0 0 0 0 0 0 0 0 0 0 0 0 0 0 0 0 0 0 0 0 0 0 0 0 0 0 0
0 0 0 0 0 0 0 0 0 0 0 0 0 0 0 0 0 0 0 0 0 0 0 0 0 0 0 0 0 0 0 0 0 0 0 0 0 0 0 0 0 0 0 0
0 0 0 0 0 0 0 0 0 0 0 0 0 0 0 0 0 0 0 0 0 0 0 0 0 0 0 0 0 0 0 0 0 0 0 0 0 0 0 0 0 0 0 0
0 0 0 0 0 0 0 0 0 0 0 0 0 0 0 0 0 0 0 0 0 0 0 0 0 0 0 0 0 0 0 0 0 0 0 0 0 0 0 0 0 0 0 0
0 0 0 0 0 0 0 0 0 0 0 0 0 0 0 0 0 0 0 0 0 0 0 0 0 0 0 0 0 0 0 0 0 0 0 0 0 0 0 0 0 0 0 0
0 0 0 0 0 0 0 0 0 0 0 0 0 0 0 0 0 0 0 0 0 0 0 0 0 0 0 0 0 0 0 0 0 0 0 0 0 0 0 0 0 0 0 0
0 0 0 0 0 0 0 0 0 0 0 0 0 0 0 0 0 0 0 0 0 0 0 0 0 0 0 0 0 0 0 0 0 0 0 0 0 0 0 0 0 0 0 0
0 0 0 0 0 0 0 0 0 0 0 0 0 0 0 0 0 0 0 0 0 0 0 0 0 0 0 0 0 0 0 0 0 0 0 0 0 0 0 0 0 0 0 0
0 0 0 0 0 0 0 0 0 0 0 0 0 0 0 0 0 0 0 0 0 0 0 0 0 0 0 0 0 0 0 0 0 0 0 0 0 0 0 0 0 0 0 0
0 0 0 0 0 0 0 0 0 0 0 0 0 0 0 0 0 0 0 0 0 0 0 0 0 0 0 0 0 0 0 0 0 0 0 0 0 0 0 0 0 0 0 0
0 0 0 0 0 0 0 0 0 0 0 0 0 0 0 0 0 0 0 0 0 0 0 0 0 0 0 0 0 0 0 0 0 0 0 0 0 0 0 0 0 0 0 0
0 0 0 0 0 0 0 0 0 0 0 0 0 0 0 0 0 0 0 0 0 0 0 0 0 0 0 0 0 0 0 0 0 0 0 0 0 0 0 0 0 0 0 0
0 0 0 0 0 0 0 0 0 0 0 0 0 0 0 0 0 0 0 0 0 0 0 0 0 0 0 0 0 0 0 0 0 0 0 0 0 0 0 0 0 0 0 0
0 0 0 0 0 0 0 0 0 0 0 0 0 0 0 0 0 0 0 0 0 0 0 0 0 0 0 0 0 0 0 0 0 0 0 0 0 0 0 0 0 0 0 0
0 0 0 0 0 0 0 0 0 0 0 0 0 0 0 0 0 0 0 0 0 0 0 0 0 0 0 0 0 0 0 0 0 0 0 0 0 0 0 0 0 0 0 0
0 0 0 0 0 0 0 0 0 0 0 0 0 0 0 0 0 0 0 0 0 0 0 0 0 0 0 0 0 0 0 0 0 0 0 0 0 0 0 0 0 0 0 0
0 0 0 0 0 0 0 0 0 0 0 0 0 0 0 0 0 0 0 0 0 0 0 0 0 0 0 0 0 0 0 0 0 0 0 0 0 0 0 0 0 0 0 0
0 0 0 0 0 0 0 0 0 0 0 0 0 0 0 0 0 0 0 0 0 0 0 0 0 0 0 0 0 0 0 0 0 0 0 0 0 0 0 0 0 0 0 0
0 0 0 0 0 0 0 0 0 0 0 0 0 0 0 0 0 0 0 0 0 0 0 0 0 0 0 0 0 0 0 0 0 0 0 0 0 0 0 0 0 0 0 0
0 0 0 0 0 0 0 0 0 0 0 0 0 0 0 0 0 0 0 0 0 0 0 0 0 0 0 0 0 0 0 0 0 0 0 0 0 0 0 0 0 0 0 0
0 0 0 0 0 0 0 0 0 0 0 0 0 0 0 0 0 0 0 0 0 0 0 0 0 0 0 0 0 0 0 0 0 0 0 0 0 0 0 0 0 0 0 0
0 0 0 0 0 0 0 0 0 0 0 0 0 0 0 0 0 0 0 0 0 0 0 0 0 0 0 0 0 0 0 0 0 0 0 0 0 0 0 0 0 0 0 0
0 0 0 0 0 0 0 0 0 0 0 0 0 0 0 0 0 0 0 0 0 0 0 0 0 0 0 0 0 0 0 0 0 0 0 0 0 0 0 0 0 0 0 0
0 0 0 0 0 0 0 0 0 0 0 0 0 0 0 0 0 0 0 0 0 0 0 0 0 0 0 0 0 0 0 0 0 0 0 0 0 0 0 0 0 0 0 0
Wind_Speed
6 8 4 3 2 2 1 4 4 4 2 3 5 6 8 5 6 6 5 5 5 5 4 3 2 2 4 6 6 6 7 7 6 6 8 8 8 8 6 6 9 10 11 12
8 5 3 3 3 4 4 4 2 2 1 1 3 5 5 4 6 7 6 6 5 5 3 2 2 4 4 4 5 5 6 7 7 6 5 5 6 5 6 6 7 8 10 11
6 2 4 4 7 5 4 2 2 3 1 1 2 2 4 3 3 3 4 5 5 5 4 1 3 2 2 3 5 7 6 6 7 7 5 7 5 4 5 6 6 8 10 10
4 4 5 5 4 2 1 3 2 4 2 3 3 5 4 6 4 4 4 4 4 4 3 1 1 0 1 3 4 5 6 6 6 6 7 9 9 7 7 6 7 9 9 9
2 3 5 3 2 1 4 3 2 2 2 1 1 3 5 5 6 6 5 5 5 4 3 1 1 1 1 3 4 5 5 5 6 6 7 7 7 6 7 8 9 8 7 8
2 1 1 2 3 2 2 2 2 3 3 3 4 5 6 6 7 6 5 5 5 5 3 2 0 2 3 4 5 5 6 6 6 6 7 8 8 9 11 11 9 9 7 6
2 2 3 3 4 6 7 6 5 6 4 6 2 4 6 3 5 7 8 7 6 5 3 0 3 4 5 6 6 6 6 6 6 7 7 8 8 8 10 11 10 11 9 8
1 4 3 3 2 2 3 4 3 2 5 7 4 5 4 4 4 5 6 7 5 4 1 1 2 3 5 6 6 6 6 6 7 7 8 7 7 7 7 9 10 11 10 10
2 2 1 1 1 1 1 2 4 4 2 5 7 6 3 3 4 5 6 5 5 3 1 2 3 4 5 6 5 6 7 7 7 8 8 7 7 8 9 9 9 8 10 11
2 2 2 0 1 0 2 4 4 2 2 6 8 7 5 9 10 7 6 6 4 3 1 2 3 4 4 4 5 6 6 7 8 8 7 11 9 9 9 9 11 11 12 12
1 1 2 2 2 2 1 2 3 3 3 3 6 9 4 10 10 8 7 6 6 4 1 1 2 3 4 5 5 6 7 8 8 8 8 9 9 10 10 9 11 11 11 13
2 3 3 4 1 0 2 3 5 2 3 4 4 10 1 5 7 7 7 6 5 4 2 0 2 4 5 6 6 7 7 8 9 9 9 10 10 10 10 11 11 12 12 12
1 3 3 6 3 1 2 3 4 4 2 3 4 10 2 3 5 6 8 7 5 4 2 1 3 4 5 6 7 7 8 8 9 9 10 10 10 10 11 11 12 12 12 13
3 2 4 5 6 4 4 4 5 5 4 5 10 10 4 6 7 7 7 6 4 3 1 1 3 4 5 6 6 7 8 8 9 9 9 10 10 11 11 11 11 12 12 12
3 2 4 7 6 4 6 7 7 9 8 10 11 8 8 11 11 10 8 6 5 3 1 2 3 4 5 6 6 7 8 8 9 9 10 11 11 11 11 11 11 11 12 14
2 1 2 5 3 5 6 9 8 8 7 10 10 13 3 6 7 7 7 6 5 3 1 2 4 5 6 6 7 7 8 8 8 8 10 11 11 11 11 11 11 12 12 13
2 1 2 6 7 7 9 6 8 7 9 9 10 8 7 6 9 10 8 6 5 3 2 2 3 4 5 6 6 7 8 8 8 8 9 10 10 11 11 12 12 12 11 11
4 3 2 3 7 5 7 1 5 7 9 9 8 5 10 7 6 5 6 7 6 4 2 0 2 3 4 5 6 6 7 7 7 8 9 9 10 10 11 10 10 10 8 9
2 4 3 1 3 12 10 4 5 5 10 8 8 7 7 9 6 2 4 6 6 5 3 2 1 2 4 5 6 6 7 7 7 8 9 9 9 10 10 10 10 8 8 7
4 5 5 3 2 8 7 2 2 3 9 6 9 11 11 11 4 6 9 7 6 5 3 2 0 2 3 5 5 6 7 7 8 9 9 9 9 10 9 10 8 7 7 8
2 3 3 5 6 14 7 4 5 3 9 4 10 11 14 11 6 7 11 7 6 5 4 3 1 2 3 4 5 5 6 7 8 8 8 9 9 9 8 9 7 7 8 8
9 7 7 5 5 14 6 9 11 12 2 6 8 8 9 7 9 11 10 8 7 6 4 3 2 2 3 4 4 5 6 7 7 7 8 8 8 8 9 9 8 7 7 6
9 11 9 13 14 7 11 12 8 6 7 7 8 7 10 10 9 10 9 8 7 6 4 3 2 2 3 4 4 4 6 6 7 7 7 7 8 7 8 7 7 6 6 4
6 5 5 8 15 10 11 9 5 7 7 7 8 10 11 10 10 10 10 8 6 5 4 3 2 2 3 4 4 4 6 6 6 6 7 6 6 7 7 6 6 5 6 5
8 8 6 10 12 8 8 11 9 7 7 8 8 8 11 13 10 10 9 9 7 6 4 4 3 1 2 3 4 5 6 5 5 6 6 6 7 6 6 6 6 7 5 8
9 12 11 13 12 9 8 7 12 12 11 12 11 9 8 10 12 11 9 8 7 6 5 4 3 1 1 2 3 5 6 5 5 5 6 5 5 5 6 6 7 12 13 16
Wind_Direction
29 60 46 316 275 225 203 133 172 219 205 161 176 184 202 184 136 158 171 157 143 129 132 140 117 76 45 28 11 0 350 344 349 353 353 348 346 341 340 340 340 343 342 340
47 41 314 316 23 62 87 111 164 239 238 140 166 210 209 186 174 178 168 153 146 134 141 151 66 48 33 8 347 353 352 349 351 348 337 331 324 319 326 321 327 334 338 337
102 314 327 59 41 59 48 107 206 211 191 74 144 247 188 205 184 171 130 139 147 143 143 86 47 45 358 342 344 2 350 346 345 341 338 337 321 313 326 325 330 332 331 330
66 3 41 63 52 53 240 223 193 139 137 270 182 289 207 196 200 179 151 148 140 135 135 92 44 204 323 329 342 350 343 340 339 342 345 344 344 333 328 324 320 321 320 321
53 22 43 35 321 293 257 227 205 163 182 293 235 244 278 168 208 203 189 174 156 159 152 146 194 188 352 345 344 338 334 332 335 338 337 333 330 320 320 322 321 320 316 316
77 30 61 309 290 282 297 54 82 59 80 295 219 184 257 203 206 183 183 171 165 171 174 188 119 17 350 343 336 332 332 327 331 334 331 327 324 322 325 328 325 326 321 317
16 349 359 2 355 6 38 57 22 354 354 272 204 195 254 214 183 170 176 176 176 183 193 215 12 352 339 335 329 328 332 331 333 334 329 324 322 320 321 325 326 326 325 323
188 302 326 11 58 351 12 94 119 266 269 292 315 252 260 214 196 165 153 158 173 186 177 45 11 350 333 328 329 332 337 337 336 334 328 322 323 323 321 321 323 323 322 318
160 259 274 289 2 75 65 106 156 153 277 282 284 284 285 222 214 174 154 158 176 171 119 41 7 352 335 330 336 339 341 339 334 330 324 324 324 318 317 316 316 318 318 319
141 280 290 289 7 284 137 145 94 119 297 292 292 284 247 205 216 199 176 176 177 166 124 36 358 339 329 332 339 342 343 334 326 323 321 336 320 314 314 316 318 318 316 316
118 153 302 347 227 242 184 190 144 141 181 219 287 276 241 196 188 183 180 176 178 181 156 352 327 326 331 342 346 343 339 333 328 321 315 317 316 315 314 316 316 315 312 313
75 117 275 268 205 258 235 212 156 175 254 210 245 275 59 157 156 155 160 171 177 166 156 272 327 336 344 349 346 342 335 333 326 320 320 321 318 317 318 317 316 314 313 314
93 112 358 345 326 248 234 215 174 140 138 211 228 266 103 128 139 148 158 172 171 166 174 301 346 345 345 346 343 338 333 328 324 326 327 324 322 323 322 319 317 317 318 318
103 133 183 232 251 249 242 218 179 147 193 237 236 254 207 196 177 168 175 175 172 180 184 13 355 344 342 341 337 332 328 326 334 335 329 328 328 326 322 320 319 321 322 322
107 200 255 261 273 267 250 233 201 196 201 217 247 247 238 202 186 179 178 174 176 182 132 24 1 345 340 338 333 329 325 328 333 332 334 333 330 327 326 325 325 328 332 335
109 168 320 294 326 311 273 249 223 222 220 238 263 271 243 136 134 155 172 175 182 176 94 24 358 346 340 333 327 326 327 329 331 330 332 332 334 333 332 331 336 338 338 337
134 96 18 291 317 339 295 249 195 213 215 205 228 236 147 154 173 178 178 180 181 158 106 24 346 330 323 322 323 325 325 325 330 329 330 334 334 334 334 338 342 340 338 338
138 117 110 317 356 292 252 189 196 224 245 219 229 195 175 161 143 142 159 173 173 152 135 347 324 318 315 321 325 323 325 328 330 331 332 334 334 332 332 337 340 336 333 338
108 136 119 92 304 281 291 237 206 222 276 220 200 162 128 114 100 184 193 173 166 153 152 178 254 288 318 331 330 331 332 332 335 339 338 335 334 334 335 340 338 334 333 336
66 88 116 137 225 257 254 162 133 75 280 230 170 159 154 151 178 220 176 163 151 145 142 148 276 339 346 337 337 342 338 339 343 342 338 336 339 336 336 339 335 333 333 343
117 109 156 182 235 265 251 153 131 189 257 182 164 163 166 186 190 152 147 150 149 145 144 133 87 25 346 336 348 350 342 341 335 335 336 340 341 335 341 337 332 335 340 340
173 169 192 162 213 258 193 148 191 217 162 156 156 155 154 142 123 136 146 149 149 147 146 137 97 30 351 351 359 350 339 324 326 334 339 339 338 340 349 333 331 333 335 332
197 191 183 192 220 237 177 200 209 161 168 171 158 151 138 140 151 154 153 154 154 157 161 149 114 52 4 355 360 345 321 319 328 335 335 331 334 336 337 329 329 333 336 332
243 181 191 245 261 247 222 233 209 185 179 164 150 149 152 152 156 155 157 159 160 164 165 152 120 68 6 345 346 324 312 320 331 332 328 328 332 335 332 336 340 336 335 336
220 174 212 253 269 288 256 221 197 173 148 138 138 151 156 149 154 160 160 163 166 168 164 152 136 105 341 334 335 324 317 323 332 328 324 327 336 329 329 333 335 340 326 350
197 184 191 231 226 205 239 211 172 162 164 158 148 145 152 157 159 158 161 162 163 166 163 156 154 161 309 328 328 320 315 319 329 332 327 317 324 331 333 327 329 344 352 353